| time (UTC) | temp C | wind direction | speed KPH | gust KPH | rain 1hr cm | rain 24hr cm | rain mn cm | humidity % | barometer mb |
| 20260506111513 | 6 | 84 | 1.6 | 6.4 | 0.00 | 0.00 | 0.00 | 86 | 1016.9 |
| 20260506111003 | 6 | 89 | 1.6 | 6.4 | 0.00 | 0.00 | 0.00 | 87 | 1017.0 |
| 20260506110507 | 6 | 67 | 0.0 | 4.8 | 0.00 | 0.00 | 0.00 | 87 | 1017.0 |
| 20260506110012 | 6 | 67 | 1.6 | 4.8 | 0.00 | 0.00 | 0.00 | 87 | 1017.0 |
| 20260506105507 | 6 | 67 | 0.0 | 0.0 | 0.00 | 0.00 | 0.00 | 87 | 1017.0 |
| 20260506105007 | 6 | 67 | 0.0 | 1.6 | 0.00 | 0.00 | 0.00 | 87 | 1017.2 |
| 20260506104520 | 6 | 67 | 0.0 | 4.8 | 0.00 | 0.00 | 0.00 | 87 | 1017.1 |
| 20260506104006 | 6 | 67 | 0.0 | 4.8 | 0.00 | 0.00 | 0.00 | 87 | 1017.1 |
| 20260506103507 | 6 | 57 | 0.0 | 4.8 | 0.00 | 0.00 | 0.00 | 87 | 1017.0 |
| 20260506103034 | 6 | 55 | 0.0 | 6.4 | 0.00 | 0.00 | 0.00 | 87 | 1016.5 |
| 20260506102508 | 6 | 82 | 0.0 | 6.4 | 0.00 | 0.00 | 0.00 | 87 | 1016.6 |
| 20260506102003 | 6 | 84 | 0.0 | 6.4 | 0.00 | 0.00 | 0.00 | 87 | 1016.8 |
| 20260506101508 | 6 | 80 | 1.6 | 6.4 | 0.00 | 0.00 | 0.00 | 87 | 1016.7 |
| 20260506101003 | 6 | 84 | 0.0 | 6.4 | 0.00 | 0.00 | 0.00 | 87 | 1016.7 |
| 20260506100506 | 6 | 81 | 1.6 | 6.4 | 0.00 | 0.00 | 0.00 | 87 | 1016.4 |
| 20260506100011 | 6 | 60 | 1.6 | 6.4 | 0.00 | 0.00 | 0.00 | 87 | 1016.4 |
| 20260506095508 | 6 | 65 | 0.0 | 4.8 | 0.00 | 0.00 | 0.00 | 87 | 1016.5 |
| 20260506095005 | 6 | 70 | 0.0 | 8.0 | 0.00 | 0.00 | 0.00 | 87 | 1016.5 |
| 20260506094518 | 6 | 63 | 3.2 | 8.0 | 0.00 | 0.00 | 0.00 | 87 | 1016.4 |
| 20260506094009 | 6 | 39 | 3.2 | 8.0 | 0.00 | 0.00 | 0.00 | 87 | 1016.5 |
| 20260506093507 | 6 | 82 | 1.6 | 9.7 | 0.00 | 0.00 | 0.00 | 87 | 1016.5 |
| 20260506093026 | 6 | 80 | 1.6 | 9.7 | 0.00 | 0.00 | 0.00 | 87 | 1016.7 |
| 20260506092510 | 6 | 64 | 3.2 | 9.7 | 0.00 | 0.00 | 0.00 | 87 | 1016.4 |
| 20260506092014 | 6 | 67 | 1.6 | 6.4 | 0.00 | 0.00 | 0.00 | 86 | 1016.4 |
| 20260506091527 | 6 | 90 | 1.6 | 9.7 | 0.00 | 0.00 | 0.00 | 86 | 1016.6 |
| 20260506091007 | 6 | 48 | 3.2 | 9.7 | 0.00 | 0.00 | 0.00 | 86 | 1016.6 |
| 20260506090503 | 6 | 61 | 1.6 | 9.7 | 0.00 | 0.00 | 0.00 | 86 | 1017.1 |
| 20260506090010 | 6 | 84 | 3.2 | 9.7 | 0.00 | 0.00 | 0.00 | 85 | 1017.1 |
| 20260506085506 | 7 | 56 | 0.0 | 6.4 | 0.00 | 0.00 | 0.00 | 85 | 1017.1 |
| 20260506085003 | 7 | 42 | 3.2 | 6.4 | 0.00 | 0.00 | 0.00 | 85 | 1017.1 |
| 20260506084514 | 7 | 74 | 1.6 | 6.4 | 0.00 | 0.00 | 0.00 | 85 | 1017.1 |
| 20260506084003 | 7 | 23 | 1.6 | 8.0 | 0.00 | 0.00 | 0.00 | 84 | 1017.2 |
| 20260506083508 | 7 | 67 | 1.6 | 11.3 | 0.00 | 0.00 | 0.00 | 84 | 1016.4 |
| 20260506083017 | 7 | 68 | 3.2 | 11.3 | 0.00 | 0.00 | 0.00 | 84 | 1016.6 |
| 20260506082508 | 7 | 76 | 1.6 | 6.4 | 0.00 | 0.00 | 0.00 | 84 | 1016.9 |
| 20260506082006 | 7 | 53 | 0.0 | 8.0 | 0.00 | 0.00 | 0.00 | 83 | 1016.8 |
| 20260506081522 | 7 | 64 | 3.2 | 9.7 | 0.00 | 0.00 | 0.00 | 83 | 1016.8 |
| 20260506081007 | 7 | 34 | 1.6 | 11.3 | 0.00 | 0.00 | 0.00 | 83 | 1016.6 |
| 20260506080510 | 7 | 57 | 6.4 | 11.3 | 0.00 | 0.00 | 0.00 | 83 | 1016.9 |
| 20260506073508 | 7 | 72 | 3.2 | 14.5 | 0.00 | 0.00 | 0.00 | 84 | 1015.5 |
| 20260506073016 | 7 | 51 | 4.8 | 11.3 | 0.00 | 0.00 | 0.00 | 83 | 1015.2 |
| 20260506072508 | 7 | 84 | 4.8 | 16.1 | 0.00 | 0.00 | 0.00 | 83 | 1015.2 |
| 20260506072008 | 7 | 69 | 6.4 | 16.1 | 0.00 | 0.00 | 0.00 | 83 | 1015.2 |
| 20260506071523 | 7 | 49 | 6.4 | 12.9 | 0.00 | 0.00 | 0.00 | 83 | 1015.2 |
| 20260506071009 | 7 | 65 | 3.2 | 14.5 | 0.00 | 0.00 | 0.00 | 83 | 1015.1 |
| 20260506070512 | 7 | 84 | 4.8 | 16.1 | 0.00 | 0.00 | 0.00 | 82 | 1014.7 |
| 20260506062505 | 8 | 40 | 3.2 | 14.5 | 0.00 | 0.00 | 0.00 | 75 | 1015.5 |
| 20260506062005 | 8 | 71 | 1.6 | 14.5 | 0.00 | 0.00 | 0.00 | 75 | 1015.3 |
| 20260506061504 | 8 | 92 | 3.2 | 14.5 | 0.00 | 0.00 | 0.00 | 74 | 1015.0 |
| 20260506061003 | 8 | 59 | 4.8 | 17.7 | 0.00 | 0.00 | 0.00 | 73 | 1014.6 |
| 20260506060503 | 9 | 61 | 6.4 | 17.7 | 0.00 | 0.00 | 0.00 | 72 | 1014.9 |
| 20260506051010 | 10 | 62 | 6.4 | 16.1 | 0.00 | 0.00 | 0.00 | 64 | 1014.6 |
| 20260506050505 | 10 | 80 | 6.4 | 16.1 | 0.00 | 0.00 | 0.00 | 65 | 1014.7 |
| 20260506045002 | 10 | 67 | 4.8 | 12.9 | 0.00 | 0.00 | 0.00 | 67 | 1014.6 |
| 20260506044503 | 10 | 113 | 4.8 | 14.5 | 0.00 | 0.00 | 0.00 | 68 | 1014.4 |
| 20260506044003 | 10 | 76 | 3.2 | 14.5 | 0.00 | 0.00 | 0.00 | 69 | 1014.1 |
| 20260506043506 | 10 | 78 | 6.4 | 12.9 | 0.00 | 0.00 | 0.00 | 69 | 1014.2 |
| 20260506043008 | 10 | 86 | 1.6 | 9.7 | 0.00 | 0.00 | 0.00 | 69 | 1014.2 |
| 20260506042503 | 10 | 78 | 3.2 | 9.7 | 0.00 | 0.00 | 0.00 | 69 | 1014.3 |
| 20260506042004 | 10 | 79 | 1.6 | 9.7 | 0.00 | 0.00 | 0.00 | 70 | 1014.3 |
| 20260506041514 | 10 | 78 | 1.6 | 11.3 | 0.00 | 0.00 | 0.00 | 71 | 1014.3 |
| 20260506041002 | 10 | 60 | 3.2 | 11.3 | 0.00 | 0.00 | 0.00 | 71 | 1014.3 |
| 20260506040506 | 10 | 63 | 1.6 | 11.3 | 0.00 | 0.00 | 0.00 | 72 | 1014.3 |
| 20260506040017 | 10 | 66 | 3.2 | 11.3 | 0.00 | 0.00 | 0.00 | 72 | 1014.4 |
| 20260506035507 | 10 | 59 | 3.2 | 9.7 | 0.00 | 0.00 | 0.00 | 73 | 1014.6 |
| 20260506035007 | 10 | 65 | 1.6 | 9.7 | 0.00 | 0.00 | 0.00 | 73 | 1014.6 |
| 20260506034520 | 10 | 74 | 1.6 | 8.0 | 0.00 | 0.00 | 0.00 | 73 | 1014.6 |
| 20260506034004 | 10 | 69 | 1.6 | 9.7 | 0.00 | 0.00 | 0.00 | 73 | 1014.6 |
| 20260506033503 | 10 | 67 | 3.2 | 9.7 | 0.00 | 0.00 | 0.00 | 73 | 1014.7 |
| 20260506033005 | 10 | 57 | 1.6 | 9.7 | 0.00 | 0.00 | 0.00 | 73 | 1014.9 |
| 20260506032503 | 10 | 79 | 3.2 | 9.7 | 0.00 | 0.00 | 0.00 | 73 | 1014.5 |
| 20260506032003 | 10 | 67 | 3.2 | 8.0 | 0.00 | 0.00 | 0.00 | 73 | 1014.4 |
| 20260506031506 | 10 | 59 | 3.2 | 9.7 | 0.00 | 0.00 | 0.00 | 72 | 1014.1 |
| 20260506031004 | 10 | 19 | 3.2 | 12.9 | 0.00 | 0.00 | 0.00 | 72 | 1014.2 |
| 20260506030504 | 10 | 79 | 0.0 | 12.9 | 0.00 | 0.00 | 0.00 | 73 | 1014.2 |
| 20260506030025 | 10 | 70 | 0.0 | 4.8 | 0.00 | 0.00 | 0.00 | 74 | 1014.2 |
| 20260506025504 | 10 | 34 | 0.0 | 6.4 | 0.00 | 0.00 | 0.00 | 74 | 1014.2 |
| 20260506025006 | 10 | 82 | 1.6 | 6.4 | 0.00 | 0.00 | 0.00 | 73 | 1014.1 |
| 20260506024535 | 10 | 65 | 1.6 | 6.4 | 0.00 | 0.00 | 0.00 | 72 | 1014.2 |
| 20260506024008 | 10 | 54 | 3.2 | 8.0 | 0.00 | 0.00 | 0.00 | 71 | 1014.3 |
| 20260506023506 | 10 | 90 | 1.6 | 11.3 | 0.00 | 0.00 | 0.00 | 70 | 1014.3 |
| 20260506023023 | 10 | 74 | 0.0 | 11.3 | 0.00 | 0.00 | 0.00 | 69 | 1014.1 |
| 20260506022503 | 10 | 86 | 1.6 | 8.0 | 0.00 | 0.00 | 0.00 | 69 | 1013.8 |
| 20260506022003 | 10 | 62 | 3.2 | 8.0 | 0.00 | 0.00 | 0.00 | 69 | 1013.8 |
| 20260506021506 | 10 | 74 | 3.2 | 8.0 | 0.00 | 0.00 | 0.00 | 69 | 1013.8 |
| 20260506021003 | 10 | 66 | 1.6 | 6.4 | 0.00 | 0.00 | 0.00 | 70 | 1013.8 |
| 20260506020503 | 10 | 80 | 0.0 | 0.0 | 0.00 | 0.00 | 0.00 | 73 | 1013.7 |
| 20260506020008 | 10 | 80 | 0.0 | 3.2 | 0.00 | 0.00 | 0.00 | 73 | 1013.5 |
| 20260506015503 | 10 | 78 | 0.0 | 3.2 | 0.00 | 0.00 | 0.00 | 74 | 1013.3 |
| 20260506015003 | 10 | 78 | 0.0 | 0.0 | 0.00 | 0.00 | 0.00 | 74 | 1013.2 |
| 20260506014518 | 10 | 78 | 0.0 | 0.0 | 0.00 | 0.00 | 0.00 | 74 | 1013.2 |
| 20260506014005 | 10 | 78 | 0.0 | 0.0 | 0.00 | 0.00 | 0.00 | 75 | 1013.1 |
| 20260506013505 | 10 | 78 | 0.0 | 0.0 | 0.00 | 0.00 | 0.00 | 75 | 1013.0 |
| 20260506013019 | 10 | 78 | 0.0 | 0.0 | 0.00 | 0.00 | 0.00 | 74 | 1013.0 |
| 20260506012507 | 10 | 78 | 0.0 | 0.0 | 0.00 | 0.00 | 0.00 | 74 | 1012.9 |
| 20260506012006 | 10 | 78 | 0.0 | 0.0 | 0.00 | 0.00 | 0.00 | 74 | 1012.7 |
| 20260506011523 | 10 | 78 | 0.0 | 0.0 | 0.00 | 0.00 | 0.00 | 74 | 1012.8 |
| 20260506011004 | 10 | 78 | 0.0 | 0.0 | 0.00 | 0.00 | 0.00 | 74 | 1012.9 |
| 20260506010504 | 10 | 78 | 0.0 | 0.0 | 0.00 | 0.00 | 0.00 | 73 | 1012.9 |
| 20260506010006 | 10 | 78 | 0.0 | 0.0 | 0.00 | 0.00 | 0.00 | 74 | 1012.7 |
| 20260506005504 | 10 | 78 | 0.0 | 3.2 | 0.00 | 0.00 | 0.00 | 72 | 1012.5 |
| 20260506005003 | 10 | 78 | 0.0 | 4.8 | 0.00 | 0.00 | 0.00 | 73 | 1012.4 |
| 20260506004512 | 10 | 78 | 0.0 | 4.8 | 0.00 | 0.00 | 0.00 | 72 | 1012.4 |
| 20260506004006 | 10 | 59 | 0.0 | 3.2 | 0.00 | 0.00 | 0.00 | 73 | 1012.4 |
| 20260506003509 | 10 | 59 | 0.0 | 4.8 | 0.00 | 0.00 | 0.00 | 72 | 1012.5 |
| 20260506003018 | 10 | 111 | 0.0 | 4.8 | 0.00 | 0.00 | 0.00 | 72 | 1012.3 |
| 20260506002506 | 10 | 68 | 0.0 | 4.8 | 0.00 | 0.00 | 0.00 | 72 | 1012.3 |
| 20260506002007 | 10 | 69 | 0.0 | 4.8 | 0.00 | 0.00 | 0.00 | 71 | 1012.3 |
| 20260506001519 | 10 | 112 | 0.0 | 6.4 | 0.00 | 0.00 | 0.00 | 71 | 1012.2 |
| 20260506001007 | 10 | 83 | 1.6 | 8.0 | 0.00 | 0.00 | 0.00 | 71 | 1012.1 |
| 20260506000511 | 10 | 62 | 0.0 | 8.0 | 0.00 | 0.00 | 0.00 | 71 | 1011.9 |
| 20260506000024 | 10 | 62 | 3.2 | 8.0 | 0.00 | 0.00 | 0.00 | 70 | 1011.9 |
| 20260505235509 | 10 | 63 | 0.0 | 6.4 | 0.00 | 0.00 | 0.00 | 72 | 1011.9 |
| 20260505235004 | 10 | 63 | 0.0 | 4.8 | 0.00 | 0.00 | 0.00 | 71 | 1012.1 |
| 20260505234510 | 10 | 63 | 1.6 | 4.8 | 0.00 | 0.00 | 0.00 | 71 | 1012.0 |
| 20260505234005 | 10 | 48 | 0.0 | 6.4 | 0.00 | 0.00 | 0.00 | 72 | 1011.9 |
| 20260505233502 | 10 | 41 | 1.6 | 6.4 | 0.00 | 0.00 | 0.00 | 71 | 1011.9 |
| 20260505233017 | 10 | 39 | 0.0 | 9.7 | 0.00 | 0.00 | 0.00 | 71 | 1011.9 |
| 20260505232505 | 10 | 85 | 0.0 | 11.3 | 0.00 | 0.00 | 0.00 | 70 | 1011.9 |
| 20260505232005 | 10 | 76 | 4.8 | 11.3 | 0.00 | 0.00 | 0.00 | 70 | 1011.9 |
| 20260505231519 | 10 | 72 | 1.6 | 6.4 | 0.00 | 0.00 | 0.00 | 70 | 1011.8 |
| 20260505231006 | 10 | 85 | 1.6 | 16.1 | 0.00 | 0.00 | 0.00 | 70 | 1011.7 |
| 20260505230506 | 10 | 68 | 4.8 | 16.1 | 0.00 | 0.00 | 0.00 | 68 | 1011.7 |
| 20260505230043 | 10 | 70 | 3.2 | 14.5 | 0.00 | 0.00 | 0.00 | 69 | 1011.7 |
| 20260505225511 | 10 | 73 | 6.4 | 12.9 | 0.00 | 0.00 | 0.00 | 67 | 1011.7 |
| 20260505225008 | 10 | 51 | 4.8 | 11.3 | 0.00 | 0.00 | 0.00 | 68 | 1011.6 |
| 20260505224524 | 10 | 89 | 3.2 | 9.7 | 0.00 | 0.00 | 0.00 | 67 | 1011.6 |
| 20260505224009 | 10 | 29 | 1.6 | 14.5 | 0.00 | 0.00 | 0.00 | 68 | 1011.8 |
| 20260505223502 | 10 | 74 | 3.2 | 14.5 | 0.00 | 0.00 | 0.00 | 68 | 1011.6 |
| 20260505223010 | 10 | 60 | 1.6 | 16.1 | 0.00 | 0.00 | 0.00 | 67 | 1011.5 |
| 20260505222502 | 10 | 76 | 4.8 | 19.3 | 0.00 | 0.00 | 0.00 | 66 | 1011.6 |
| 20260505222006 | 10 | 252 | 4.8 | 19.3 | 0.00 | 0.00 | 0.00 | 67 | 1011.5 |
| 20260505221518 | 10 | 36 | 8.0 | 22.5 | 0.00 | 0.00 | 0.00 | 65 | 1011.5 |
| 20260505221010 | 10 | 21 | 9.7 | 22.5 | 0.00 | 0.00 | 0.00 | 65 | 1011.4 |
| 20260505220505 | 10 | 73 | 8.0 | 16.1 | 0.00 | 0.00 | 0.00 | 66 | 1011.6 |
| 20260505220029 | 10 | 14 | 3.2 | 12.9 | 0.00 | 0.00 | 0.00 | 68 | 1011.7 |
| 20260505215507 | 10 | 53 | 3.2 | 19.3 | 0.00 | 0.00 | 0.00 | 68 | 1011.9 |
| 20260505215007 | 10 | 85 | 4.8 | 19.3 | 0.00 | 0.00 | 0.00 | 69 | 1011.8 |
| 20260505214527 | 10 | 80 | 4.8 | 12.9 | 0.00 | 0.00 | 0.00 | 69 | 1011.7 |
| 20260505214012 | 10 | 15 | 6.4 | 19.3 | 0.00 | 0.00 | 0.00 | 70 | 1011.7 |
| 20260505213510 | 10 | 65 | 3.2 | 19.3 | 0.00 | 0.00 | 0.00 | 69 | 1011.9 |
| 20260505213028 | 10 | 68 | 3.2 | 12.9 | 0.00 | 0.00 | 0.00 | 69 | 1012.0 |
| 20260505212502 | 10 | 61 | 3.2 | 12.9 | 0.00 | 0.00 | 0.00 | 69 | 1012.1 |
| 20260505212003 | 10 | 79 | 4.8 | 12.9 | 0.00 | 0.00 | 0.00 | 69 | 1011.9 |
| 20260505211514 | 10 | 77 | 3.2 | 14.5 | 0.00 | 0.00 | 0.00 | 69 | 1012.0 |
| 20260505211009 | 10 | 64 | 3.2 | 14.5 | 0.00 | 0.00 | 0.00 | 67 | 1012.1 |
| 20260505210505 | 10 | 80 | 4.8 | 16.1 | 0.00 | 0.00 | 0.00 | 68 | 1012.0 |
| 20260505210017 | 10 | 55 | 6.4 | 19.3 | 0.00 | 0.00 | 0.00 | 68 | 1011.9 |
| 20260505205507 | 10 | 68 | 8.0 | 19.3 | 0.00 | 0.00 | 0.00 | 68 | 1012.1 |
| 20260505205009 | 10 | 76 | 8.0 | 19.3 | 0.00 | 0.00 | 0.00 | 67 | 1012.2 |
| 20260505204524 | 10 | 26 | 4.8 | 16.1 | 0.00 | 0.00 | 0.00 | 68 | 1012.2 |
| 20260505204009 | 10 | 40 | 4.8 | 22.5 | 0.00 | 0.00 | 0.00 | 68 | 1012.1 |
| 20260505203503 | 10 | 65 | 9.7 | 22.5 | 0.00 | 0.00 | 0.00 | 67 | 1012.0 |
| 20260505203004 | 10 | 69 | 6.4 | 19.3 | 0.00 | 0.00 | 0.00 | 67 | 1012.0 |
| 20260505202503 | 11 | 67 | 8.0 | 19.3 | 0.00 | 0.00 | 0.00 | 67 | 1012.1 |
| 20260505202004 | 10 | 37 | 4.8 | 20.9 | 0.00 | 0.00 | 0.00 | 67 | 1012.0 |
| 20260505201513 | 10 | 76 | 6.4 | 20.9 | 0.00 | 0.00 | 0.00 | 66 | 1011.9 |
| 20260505201003 | 11 | 84 | 6.4 | 20.9 | 0.00 | 0.00 | 0.00 | 66 | 1012.0 |
| 20260505200503 | 11 | 59 | 6.4 | 16.1 | 0.00 | 0.00 | 0.00 | 65 | 1012.0 |
| 20260505200018 | 11 | 80 | 8.0 | 16.1 | 0.00 | 0.00 | 0.00 | 65 | 1011.9 |
| 20260505195506 | 11 | 70 | 4.8 | 20.9 | 0.00 | 0.00 | 0.00 | 67 | 1012.0 |
| 20260505195006 | 11 | 71 | 4.8 | 20.9 | 0.00 | 0.00 | 0.00 | 67 | 1012.0 |
| 20260505194521 | 11 | 64 | 8.0 | 17.7 | 0.00 | 0.00 | 0.00 | 66 | 1011.9 |
| 20260505194011 | 11 | 48 | 3.2 | 20.9 | 0.00 | 0.00 | 0.00 | 67 | 1011.9 |
| 20260505193506 | 11 | 61 | 4.8 | 22.5 | 0.00 | 0.00 | 0.00 | 66 | 1011.8 |
| 20260505193021 | 11 | 89 | 4.8 | 22.5 | 0.00 | 0.00 | 0.00 | 66 | 1011.7 |
| 20260505192511 | 11 | 65 | 4.8 | 20.9 | 0.00 | 0.00 | 0.00 | 65 | 1011.7 |
| 20260505192008 | 11 | 61 | 8.0 | 22.5 | 0.00 | 0.00 | 0.00 | 65 | 1011.8 |
| 20260505191507 | 11 | 79 | 6.4 | 22.5 | 0.00 | 0.00 | 0.00 | 65 | 1011.8 |
| 20260505191003 | 11 | 83 | 8.0 | 25.7 | 0.00 | 0.00 | 0.00 | 65 | 1011.6 |
| 20260505190503 | 11 | 63 | 6.4 | 25.7 | 0.00 | 0.00 | 0.00 | 65 | 1011.6 |
| 20260505190014 | 11 | 68 | 8.0 | 19.3 | 0.00 | 0.00 | 0.00 | 66 | 1011.6 |
| 20260505185506 | 11 | 74 | 8.0 | 25.7 | 0.00 | 0.00 | 0.00 | 65 | 1011.6 |
| 20260505185003 | 11 | 51 | 9.7 | 25.7 | 0.00 | 0.00 | 0.00 | 64 | 1011.3 |
| 20260505184518 | 11 | 62 | 8.0 | 25.7 | 0.00 | 0.00 | 0.00 | 64 | 1011.3 |
| 20260505184006 | 11 | 92 | 4.8 | 25.7 | 0.00 | 0.00 | 0.00 | 65 | 1011.2 |
| 20260505183505 | 11 | 69 | 14.5 | 25.7 | 0.00 | 0.00 | 0.00 | 64 | 1011.2 |
| 20260505183028 | 11 | 79 | 9.7 | 22.5 | 0.00 | 0.00 | 0.00 | 64 | 1011.3 |
| 20260505182509 | 11 | 57 | 8.0 | 19.3 | 0.00 | 0.00 | 0.00 | 63 | 1011.2 |
| 20260505182007 | 11 | 98 | 3.2 | 14.5 | 0.00 | 0.00 | 0.00 | 66 | 1011.2 |
| 20260505181526 | 11 | 65 | 4.8 | 14.5 | 0.00 | 0.00 | 0.00 | 64 | 1011.1 |
| 20260505181010 | 11 | 61 | 3.2 | 16.1 | 0.00 | 0.00 | 0.00 | 64 | 1011.3 |
| 20260505180507 | 11 | 84 | 3.2 | 16.1 | 0.00 | 0.00 | 0.00 | 65 | 1011.3 |
| 20260505180017 | 11 | 72 | 4.8 | 22.5 | 0.00 | 0.00 | 0.00 | 65 | 1011.3 |
| 20260505175503 | 11 | 70 | 4.8 | 25.7 | 0.00 | 0.00 | 0.00 | 65 | 1011.4 |
| 20260505175003 | 11 | 51 | 11.3 | 25.7 | 0.00 | 0.00 | 0.00 | 64 | 1011.5 |
| 20260505174512 | 11 | 71 | 11.3 | 29.0 | 0.00 | 0.00 | 0.00 | 63 | 1011.4 |
| 20260505174007 | 11 | 91 | 11.3 | 29.0 | 0.00 | 0.00 | 0.00 | 63 | 1011.3 |
| 20260505173506 | 11 | 95 | 9.7 | 25.7 | 0.00 | 0.00 | 0.00 | 62 | 1011.4 |
| 20260505173021 | 11 | 32 | 9.7 | 19.3 | 0.00 | 0.00 | 0.00 | 62 | 1011.3 |
| 20260505172510 | 11 | 88 | 6.4 | 25.7 | 0.00 | 0.00 | 0.00 | 62 | 1011.3 |
| 20260505172012 | 11 | 342 | 6.4 | 25.7 | 0.00 | 0.00 | 0.00 | 63 | 1011.3 |
| 20260505171529 | 11 | 74 | 9.7 | 25.7 | 0.00 | 0.00 | 0.00 | 62 | 1011.3 |
| 20260505171014 | 11 | 80 | 8.0 | 30.6 | 0.00 | 0.00 | 0.00 | 62 | 1011.3 |
| 20260505170509 | 11 | 88 | 11.3 | 30.6 | 0.00 | 0.00 | 0.00 | 62 | 1011.3 |
| 20260505170025 | 11 | 88 | 9.7 | 24.1 | 0.00 | 0.00 | 0.00 | 62 | 1011.3 |
| 20260505165508 | 11 | 70 | 6.4 | 20.9 | 0.00 | 0.00 | 0.00 | 62 | 1011.2 |
| 20260505165011 | 11 | 63 | 6.4 | 20.9 | 0.00 | 0.00 | 0.00 | 62 | 1011.2 |
| 20260505164508 | 11 | 69 | 4.8 | 25.7 | 0.00 | 0.00 | 0.00 | 62 | 1011.2 |
| 20260505164003 | 11 | 111 | 6.4 | 25.7 | 0.00 | 0.00 | 0.00 | 62 | 1011.1 |
| 20260505163509 | 11 | 19 | 8.0 | 19.3 | 0.00 | 0.00 | 0.00 | 62 | 1010.9 |
| 20260505163015 | 11 | 101 | 6.4 | 24.1 | 0.00 | 0.00 | 0.00 | 63 | 1010.9 |
| 20260505162506 | 11 | 69 | 8.0 | 30.6 | 0.00 | 0.00 | 0.00 | 62 | 1011.0 |
| 20260505162009 | 11 | 51 | 11.3 | 30.6 | 0.00 | 0.00 | 0.00 | 61 | 1011.0 |
| 20260505161522 | 11 | 69 | 9.7 | 29.0 | 0.00 | 0.00 | 0.00 | 61 | 1011.0 |
| 20260505161007 | 11 | 94 | 11.3 | 29.0 | 0.00 | 0.00 | 0.00 | 62 | 1011.0 |
| 20260505160507 | 11 | 103 | 12.9 | 29.0 | 0.00 | 0.00 | 0.00 | 61 | 1010.9 |
| 20260505153014 | 11 | 94 | 4.8 | 14.5 | 0.00 | 0.00 | 0.00 | 65 | 1009.7 |
| 20260505152506 | 11 | 54 | 4.8 | 14.5 | 0.00 | 0.00 | 0.00 | 64 | 1009.8 |
| 20260505152003 | 11 | 69 | 4.8 | 17.7 | 0.00 | 0.00 | 0.00 | 64 | 1009.7 |
| 20260505151516 | 11 | 58 | 6.4 | 20.9 | 0.00 | 0.00 | 0.00 | 63 | 1009.5 |
| 20260505151006 | 11 | 53 | 6.4 | 29.0 | 0.00 | 0.00 | 0.00 | 63 | 1009.6 |
| 20260505150507 | 11 | 352 | 8.0 | 29.0 | 0.00 | 0.00 | 0.00 | 63 | 1009.2 |
| 20260505140504 | 11 | 64 | 8.0 | 17.7 | 0.00 | 0.00 | 0.00 | 60 | 1009.5 |
| 20260505125010 | 11 | 30 | 6.4 | 22.5 | 0.00 | 0.00 | 0.00 | 59 | 1008.1 |
| 20260505124522 | 11 | 90 | 9.7 | 20.9 | 0.00 | 0.00 | 0.00 | 60 | 1008.1 |
| 20260505124010 | 11 | 64 | 9.7 | 20.9 | 0.00 | 0.00 | 0.00 | 61 | 1007.9 |
| 20260505123509 | 11 | 67 | 4.8 | 20.9 | 0.00 | 0.00 | 0.00 | 61 | 1007.9 |
| 20260505123032 | 11 | 59 | 9.7 | 20.9 | 0.00 | 0.00 | 0.00 | 60 | 1007.9 |
| 20260505122509 | 11 | 46 | 9.7 | 20.9 | 0.00 | 0.00 | 0.00 | 60 | 1007.7 |
| 20260505122004 | 12 | 59 | 8.0 | 25.7 | 0.00 | 0.00 | 0.00 | 60 | 1007.6 |
| 20260505121512 | 12 | 37 | 9.7 | 25.7 | 0.00 | 0.00 | 0.00 | 59 | 1007.4 |
| 20260505121005 | 12 | 67 | 8.0 | 25.7 | 0.00 | 0.00 | 0.00 | 61 | 1007.4 |
| 20260505120504 | 12 | 53 | 6.4 | 20.9 | 0.00 | 0.00 | 0.00 | 60 | 1007.3 |
| 20260505120022 | 12 | 43 | 8.0 | 24.1 | 0.00 | 0.00 | 0.00 | 61 | 1007.2 |
| 20260505115504 | 12 | 87 | 6.4 | 24.1 | 0.00 | 0.00 | 0.00 | 60 | 1007.0 |
| 20260505115009 | 12 | 75 | 9.7 | 25.7 | 0.00 | 0.00 | 0.00 | 61 | 1006.7 |
| 20260505114518 | 12 | 63 | 6.4 | 25.7 | 0.00 | 0.00 | 0.00 | 61 | 1006.7 |
| 20260505114006 | 12 | 61 | 4.8 | 25.7 | 0.00 | 0.00 | 0.00 | 61 | 1006.5 |
| 20260505113507 | 12 | 340 | 9.7 | 25.7 | 0.00 | 0.00 | 0.00 | 61 | 1006.4 |
| 20260505113023 | 12 | 67 | 8.0 | 17.7 | 0.00 | 0.00 | 0.00 | 61 | 1006.2 |
| 20260505112509 | 12 | 47 | 6.4 | 17.7 | 0.00 | 0.00 | 0.00 | 61 | 1006.2 |
| 20260505112003 | 12 | 59 | 8.0 | 20.9 | 0.00 | 0.00 | 0.00 | 61 | 1006.2 |